Powrót do katalogu

STARLINK-36644

AktywnyŁącznośćVLEO
NORAD 67821·PAYLOAD·🇺🇸 United States

Wystrzelony Feb 16, 2026 z Vandenberg Space Force Base

Loading…

Następne Przeloty (najbliższe 24 godziny)

TLE

ŚwieżeSource: CelesTrak SupGP

Epoka: Sep 14, 2026, 21:01 UTC

1 67821C 26033A   26257.87618056  .00005542  00000+0  20074-3 0  2579
2 67821  43.0025 278.5544 0001454 266.1717 268.9331 15.27575774    12

Śledź STARLINK-36644 w czasie rzeczywistym z AllMySat

Download on the App Store